Regional Weather Roundup
Issued by NWS

Home | Current Version | Previous Version | Text Only | Print | Product List | Glossary Off
Versions: 1 2 3 4 5 6 7 8 9 10 11 12 13 14 15 16 17 18 19 20 21 22 23 24 25 26 27 28 29 30 31 32 33 34 35 36 37 38 39 40 41 42 43 44 45 46 47 48 49 50

000
ASUS43 KLSX 032259
RWRMO

WEATHER SUMMARY FOR MISSOURI
NATIONAL WEATHER SERVICE SPRINGFIELD MO
600 PM CDT SUN MAY 03 2015

NOTE: "FAIR" INDICATES FEW OR NO CLOUDS BELOW 12,000 FEET WITH NO
       SIGNIFICANT WEATHER AND/OR OBSTRUCTIONS TO VISIBILITY.
       CURRENT SKY AND/OR WEATHER CONDITIONS ARE NOT AVAILABLE FOR
       CHILLICOTHE AND FARMINGTON.

MOZ001>031-035>038-043-044-053-054-040000-
...NORTHERN AND WESTERN MISSOURI...

CITY           SKY/WX    TMP DP  RH WIND       PRES   REMARKS
KANSAS CTY INT PTSUNNY   81  59  47 S22       29.82R
KANSAS C DTWN  PTSUNNY   81  57  43 S18G31    29.82R
LEE`S SUMMIT   PTSUNNY   78  57  48 S16G26    29.85S
ST JOSEPH      MOSUNNY   83  58  42 S15G23    29.79S
CHILLICOTHE      N/A     82  57  42 S17G26    29.82S
KIRKSVILLE     SUNNY     81  58  45 S16G23    29.85F

$$
MOZ066>068-077>081-088>096-101>105-040000-
...SOUTHWEST MISSOURI...

CITY           SKY/WX    TMP DP  RH WIND       PRES   REMARKS
SPRINGFIELD    PTSUNNY   77  55  46 S14       29.94S
JOPLIN         PTSUNNY   78  57  48 S15       29.92S

$$
MOZ032>034-039>042-045>050-055>058-069>072-040000-
...CENTRAL MISSOURI...

CITY           SKY/WX    TMP DP  RH WIND       PRES   REMARKS
COLUMBIA       PTSUNNY   80  53  39 SW15      29.91R
JEFFERSON CITY PTSUNNY   83  51  33 S14G21    29.89R
ROLLA          MOSUNNY   79  54  41 S13       29.93S
SEDALIA        PTSUNNY   80  55  42 SW18      29.90R
OSAGE BEACH    MOSUNNY   82  52  34 S13G23    29.92R

$$
MOZ051-052-059>065-040000-
...EAST CENTRAL MISSOURI...

CITY           SKY/WX    TMP DP  RH WIND       PRES   REMARKS
ST LOUIS INTL  CLOUDY    83  46  27 S13G22    29.94S
SPIRIT OF STL  PTSUNNY   79  51  37 S3        29.92S
ST CHARLES     MOSUNNY   81  47  30 S15       29.91S

$$
MOZ072>076-082>087-097>100-106>115-040000-
...SOUTH CENTRAL AND SOUTHEAST MISSOURI...

CITY           SKY/WX    TMP DP  RH WIND       PRES   REMARKS
CAPE GIRARDEAU SUNNY     81  45  28 SW14      30.01R
FARMINGTON     MOSUNNY   79  52  38 S15       30.03S
POPLAR BLUFF   SUNNY     78  49  35 S13G18    29.99S
WEST PLAINS    MOSUNNY   78  51  38 SW14      30.00S

$$


USA.gov is the U.S. government's official web portal to all federal, state and local government web resources and services.